Hettinger, ND

11:24 AM MDT on August 31, 2016 (GMT -0600)
Hettinger Municipal

Weather History for KHEI - February, 2014

Change the Weather History Date:

Monday, February 17, 2014

  Actual Average Record
Temperature  
Mean Temperature 32 °F -  
Max Temperature 42 °F 32 °F 55 °F (2002)
Min Temperature 21 °F 10 °F -18 °F (2006)
Degree Days  
Heating Degree Days 33 44  
Month to date heating degree days 973 774  
Since 1 July heating degree days 6162 5850  
Moisture  
Dew Point 23 °F    
Average Humidity 72    
Maximum Humidity 84    
Minimum Humidity 59    
Precipitation  
Precipitation 0.00 in 0.01 in 0.01 in (2003)
Month to date precipitation 0.09 0.28  
Year to date precipitation 0.23 0.59  
Sea Level Pressure  
Sea Level Pressure 29.75 in    
Wind  
Wind Speed 9 mph (West)    
Max Wind Speed 22 mph    
Max Gust Speed 27 mph    
Visibility 10 miles    
Events      
T = Trace of Precipitation, MM = Missing Value Source: NWS Daily Summary

Daily Weather History Graph

Daily Weather History Graph

Search for Another Location

Airport or City:

Trip Planner

Search our weather history database for the weather conditions in past years. The results will help you decide how hot, cold, wet, or windy it might be!

Date:

Astronomy

Feb. 17, 2014 Rise Set
Actual Time 6:49 AM MST 5:19 PM MST
Civil Twilight 6:19 AM MST 5:50 PM MST
Nautical Twilight 5:44 AM MST 6:25 PM MST
Astronomical Twilight 5:09 AM MST 7:00 PM MST
Moon 8:28 PM MST (2/17) 7:41 AM MST (2/17)
Length of Visible Light 11h 31m
Length of Day
10h 29m
Waning Gibbous, 93% of the Moon is Illuminated
Feb 17
Waning Gibbous
Feb 22
Last Quarter
Mar 1
New
Mar 8
First Quarter
Mar 16
Full

Hourly Weather History & Observations

Time (MST) Temp. Windchill Dew Point Humidity Pressure Visibility Wind Dir Wind Speed Gust Speed Precip Events Conditions
12:53 AM 30.9 °F 19.8 °F 25.0 °F 79% 29.84 in 10.0 mi WNW 16.1 mph - N/A   Overcast
1:53 AM 26.1 °F 15.6 °F 21.0 °F 81% 29.86 in 10.0 mi West 11.5 mph - N/A   Clear
2:53 AM 24.1 °F 12.5 °F 19.0 °F 81% 29.86 in 10.0 mi West 12.7 mph - N/A   Clear
3:53 AM 25.0 °F 12.6 °F 19.0 °F 78% 29.86 in 10.0 mi West 15.0 mph - N/A   Clear
4:53 AM 23.0 °F 13.9 °F 17.1 °F 78% 29.87 in 10.0 mi West 8.1 mph - N/A   Clear
5:53 AM 21.9 °F 11.0 °F 17.1 °F 82% 29.88 in 10.0 mi WNW 10.4 mph - N/A   Clear
6:53 AM 21.9 °F 10.4 °F 16.0 °F 78% 29.89 in 10.0 mi WNW 11.5 mph - N/A   Clear
7:53 AM 24.1 °F 16.0 °F 17.1 °F 75% 29.89 in 10.0 mi NW 6.9 mph - N/A   Clear
8:53 AM 28.9 °F 19.2 °F 19.9 °F 69% 29.87 in 10.0 mi West 11.5 mph - N/A   Clear
9:53 AM 30.9 °F 21.7 °F 21.0 °F 67% 29.86 in 10.0 mi West 11.5 mph - N/A   Clear
10:53 AM 33.1 °F 27.7 °F 24.1 °F 70% 29.83 in 10.0 mi WSW 5.8 mph - N/A   Clear
11:53 AM 37.0 °F 31.0 °F 27.0 °F 67% 29.78 in 10.0 mi SSW 8.1 mph - N/A   Clear
12:53 PM 39.0 °F 31.8 °F 27.0 °F 62% 29.75 in 10.0 mi SW 11.5 mph - N/A   Clear
1:53 PM 39.9 °F 33.4 °F 27.0 °F 60% 29.71 in 10.0 mi SW 10.4 mph - N/A   Clear
2:53 PM 39.9 °F 35.1 °F 28.9 °F 65% 29.68 in 10.0 mi SSW 6.9 mph - N/A   Clear
3:53 PM 39.9 °F 32.9 °F 30.0 °F 68% 29.66 in 10.0 mi SSW 11.5 mph - N/A   Clear
4:53 PM 39.9 °F 31.1 °F 27.0 °F 60% 29.65 in 10.0 mi WSW 17.3 mph - N/A   Clear
5:53 PM 37.0 °F 28.9 °F 28.0 °F 70% 29.65 in 10.0 mi WSW 12.7 mph - N/A   Clear
6:53 PM 32.0 °F - 26.1 °F 79% 29.65 in 10.0 mi Calm Calm - N/A   Clear
7:53 PM 32.0 °F 26.4 °F 25.0 °F 75% 29.63 in 10.0 mi WNW 5.8 mph - N/A   Clear
8:53 PM 32.0 °F 26.4 °F 24.1 °F 73% 29.61 in 10.0 mi West 5.8 mph - N/A   Clear
9:53 PM 32.0 °F 28.7 °F 21.9 °F 66% 29.60 in 10.0 mi Variable 3.5 mph - N/A   Clear
10:53 PM 30.0 °F 24.1 °F 21.0 °F 69% 29.59 in 10.0 mi WNW 5.8 mph - N/A   Clear
11:53 PM 28.9 °F 21.9 °F 19.9 °F 69% 29.59 in 10.0 mi WNW 6.9 mph - N/A   Clear